This demonstration page uses our WeatherBlox Daily Observations layout. Learn more.

Hourly Observations for April 27, 2017

Temp ( °F °C ) Dew Point ( °F °C ) Humidity (%) Winds ( mph kmh ) Pressure ( in mb ) Visibility ( mi km ) Precip ( " mm )
12:15 am 00:15 Clear 32 0 27 -2.6 83 83 Calm 29.85 1011 10 16.0934 0 0
12:35 am 00:35 Clear 31 -0.3 26 -3.2 81 81 NE 7 11 29.85 1011 10 16.0934 0 0
12:55 am 00:55 Clear 29 -1.5 26 -3.3 88 88 NE 3 6 29.85 1011 10 16.0934 0 0
1:15 am 01:15 Clear 32 0.1 28 -2.1 85 85 Calm 29.85 1011 10 16.0934 0 0
1:35 am 01:35 Clear 31 -0.5 27 -2.8 85 85 SSW 7 11 29.85 1011 10 16.0934 0 0
1:55 am 01:55 Clear 32 -0.1 27 -2.6 83 83 SW 5 7 29.85 1011 10 16.0934 0 0
2:15 am 02:15 Clear 32 0 28 -2.2 85 85 Calm 29.85 1011 10 16.0934 0 0
2:35 am 02:35 Clear 31 -0.7 27 -2.7 87 87 Calm 29.83 1010 10 16.0934 0 0
2:55 am 02:55 Clear 28 -2.5 25 -3.8 91 91 W 7 11 29.83 1010 10 16.0934 0 0
3:15 am 03:15 Clear 31 -0.6 28 -2.1 90 90 WSW 5 7 29.83 1010 10 16.0934 0 0
3:35 am 03:35 Clear 30 -1 27 -3 86 86 Calm 29.83 1010 10 16.0934 0 0
3:55 am 03:55 Clear 30 -1.3 27 -2.9 89 89 Calm 29.83 1010 10 16.0934 0 0
4:15 am 04:15 Clear 28 -2.2 26 -3.6 90 90 Calm 29.8 1009 10 16.0934 0 0
4:35 am 04:35 Clear 28 -2.2 26 -3.5 91 91 W 3 6 29.8 1009 10 16.0934 0 0
4:55 am 04:55 Clear 29 -1.7 26 -3.1 90 90 Calm 29.8 1009 10 16.0934 0 0
5:15 am 05:15 Clear 26 -3.3 24 -4.6 91 91 W 3 6 29.83 1010 10 16.0934 0 0
5:35 am 05:35 Clear 29 -1.5 27 -3 90 90 Calm 29.8 1009 10 16.0934 0 0
5:55 am 05:55 Mostly Cloudy 29 -1.5 26 -3.3 88 88 Calm 29.8 1009 10 16.0934 0 0
6:15 am 06:15 Partly Cloudy 28 -2.3 25 -3.8 90 90 Calm 29.8 1009 10 16.0934 0 0
6:35 am 06:35 Partly Cloudy 28 -2.1 26 -3.5 90 90 Calm 29.8 1009 10 16.0934 0 0
6:55 am 06:55 Mostly Cloudy 28 -2.4 25 -3.7 91 91 Calm 29.8 1009 10 16.0934 0 0
7:15 am 07:15 Cloudy 30 -1 28 -2.4 90 90 Calm 29.8 1009 10 16.0934 0 0
7:35 am 07:35 Partly Cloudy 31 -0.5 28 -2 90 90 Calm 29.8 1009 10 16.0934 0 0
7:55 am 07:55 Mostly Cloudy 34 0.9 31 -0.7 89 89 Calm 29.8 1009 10 16.0934 0 0
8:15 am 08:15 Mostly Cloudy 36 2.4 32 -0.1 84 84 Calm 29.8 1009 10 16.0934 0 0
8:35 am 08:35 Partly Cloudy 38 3.6 32 -0.1 77 77 Calm 29.77 1008 10 16.0934 0 0
8:55 am 08:55 Partly Cloudy 40 4.7 31 -0.8 68 68 Calm 29.77 1008 10 16.0934 0 0
9:15 am 09:15 Mostly Cloudy 41 4.8 30 -1.1 66 66 ENE 5 7 29.77 1008 10 16.0934 0 0
9:35 am 09:35 Cloudy 41 5.2 30 -1.1 64 64 E 3 6 29.77 1008 10 16.0934 0 0
9:55 am 09:55 Cloudy 42 5.5 30 -1.1 63 63 E 7 11 29.77 1008 10 16.0934 0 0
10:15 am 10:15 Cloudy 42 5.5 30 -1.3 62 62 ESE 7 11 29.77 1008 10 16.0934 0 0
10:35 am 10:35 Cloudy 42 5.6 30 -1 63 63 E 6 9 29.77 1008 10 16.0934 0 0
10:55 am 10:55 Cloudy 43 6.1 30 -0.9 61 61 ESE 7 11 29.77 1008 10 16.0934 0 0
11:15 am 11:15 Mostly Cloudy 45 7.1 30 -1 57 57 ESE 7 11 29.74 1007 10 16.0934 0 0
11:35 am 11:35 Mostly Cloudy 46 7.5 30 -1 55 55 SE 10 17 29.74 1007 10 16.0934 0 0
11:55 am 11:55 Cloudy 46 8 30 -0.9 54 54 SE 8 13 29.74 1007 10 16.0934 0 0
12:15 pm 12:15 Mostly Cloudy 48 9 31 -0.3 52 52 ESE 13 20 29.71 1006 10 16.0934 0 0
12:35 pm 12:35 Mostly Cloudy 49 9.3 32 -0.2 52 52 SE 12 19 29.71 1006 10 16.0934 0 0
12:55 pm 12:55 Cloudy 48 9 31 -0.3 52 52 SE 12 19 29.71 1006 10 16.0934 0 0
1:15 pm 13:15 Cloudy with Light Rain 48 9.1 33 0.6 56 56 SE 12 19 29.71 1006 10 16.0934 0 0
1:35 pm 13:35 Cloudy with Light Rain 47 8.5 35 1.7 63 63 SE 12 19 29.71 1006 10 16.0934 0 0
1:55 pm 13:55 Cloudy with Light Drizzle 48 8.7 37 2.6 66 66 SE 12 19 29.68 1005 10 16.0934 0 0
2:15 pm 14:15 Cloudy 49 9.7 36 2.3 60 60 ESE 14 22 29.65 1004 10 16.0934 0 0
2:35 pm 14:35 Mostly Cloudy 52 10.9 35 1.8 54 54 ESE 14 22 29.65 1004 10 16.0934 0 0
2:55 pm 14:55 Cloudy 53 11.5 34 1.2 49 49 ESE 13 20 29.62 1003 10 16.0934 0 0
3:15 pm 15:15 Cloudy 52 11 34 1.2 51 51 ESE 14 22 29.62 1003 10 16.0934 0 0
3:35 pm 15:35 Cloudy 52 11 35 1.9 54 54 ESE 12 19 29.62 1003 10 16.0934 0 0
3:55 pm 15:55 Mostly Cloudy 55 12.5 36 2 49 49 ESE 15 24 29.59 1002 10 16.0934 0 0
4:15 pm 16:15 Mostly Cloudy 56 13.3 34 1 43 43 ESE 17 28 29.59 1002 10 16.0934 0 0
4:35 pm 16:35 Cloudy 57 13.8 34 1 42 42 SE 20 31 29.59 1002 10 16.0934 0 0
4:55 pm 16:55 Cloudy 56 13.3 34 1 43 43 SSE 16 26 29.59 1002 10 16.0934 0 0
5:15 pm 17:15 Cloudy 55 12.8 34 1.1 45 45 SSE 17 28 29.59 1002 10 16.0934 0 0
5:35 pm 17:35 Cloudy 54 12 35 1.6 49 49 SE 22 35 29.62 1003 10 16.0934 0 0
5:55 pm 17:55 Cloudy 51 10.6 37 2.9 59 59 SSE 22 35 29.62 1003 10 16.0934 0 0
6:15 pm 18:15 Cloudy 49 9.4 39 3.7 68 68 SE 21 33 29.62 1003 10 16.0934 0 0
6:35 pm 18:35 Cloudy 48 8.8 40 4.5 75 75 SE 18 30 29.65 1004 10 16.0934 0 0
6:55 pm 18:55 Cloudy 48 8.8 40 4.4 74 74 SE 21 33 29.68 1005 10 16.0934 0 0
7:15 pm 19:15 Cloudy 48 8.7 40 4.5 75 75 SE 18 30 29.68 1005 10 16.0934 0 0
7:35 pm 19:35 Cloudy with Light Drizzle 47 8.1 41 5.2 82 82 ESE 17 28 29.68 1005 10 16.0934 0 0
7:55 pm 19:55 Cloudy with Light Drizzle 46 7.6 42 5.7 88 88 ESE 16 26 29.68 1005 10 16.0934 0 0
8:15 pm 20:15 Cloudy with Light Drizzle 45 7.2 42 5.6 90 90 ESE 17 28 29.68 1005 10 16.0934 0 0
8:35 pm 20:35 Cloudy 45 7 42 5.5 90 90 ESE 16 26 29.68 1005 10 16.0934 0 0
8:55 pm 20:55 Cloudy 45 7 42 5.5 90 90 ESE 13 20 29.68 1005 10 16.0934 0 0
9:15 pm 21:15 Cloudy 45 7.1 41 5.1 87 87 ESE 14 22 29.71 1006 10 16.0934 0 0
9:35 pm 21:35 Cloudy 45 7.2 41 5 86 86 ESE 13 20 29.71 1006 10 16.0934 0 0
9:55 pm 21:55 Cloudy 45 7.2 41 4.8 85 85 ESE 15 24 29.71 1006 10 16.0934 0 0
10:15 pm 22:15 Cloudy with Light Drizzle 45 7.1 41 4.9 86 86 ESE 15 24 29.71 1006 10 16.0934 0 0
10:35 pm 22:35 Cloudy 45 7 41 5 87 87 ESE 14 22 29.71 1006 10 16.0934 0 0
10:55 pm 22:55 Cloudy 45 7 41 5.1 88 88 ESE 15 24 29.71 1006 10 16.0934 0 0
11:15 pm 23:15 Cloudy 45 7 41 5.2 88 88 ESE 13 20 29.71 1006 10 16.0934 0 0
11:35 pm 23:35 Cloudy 45 7 41 5.1 88 88 ESE 14 22 29.71 1006 10 16.0934 0 0
11:55 pm 23:55 Cloudy 45 7 41 5.1 88 88 ESE 15 24 29.71 1006 10 16.0934 0 0

Powered by AerisWeather